Flag for Germany Weather past 2 weeks in Gronau (Westfalen), North Rhine-Westphalia, Germany

Now
71 °F

Light freezing rain. Partly sunny.


Feels Like: 71 °F
Forecast: 62 / 75 °F
Wind: 1 mph from West

Location: Twenthe

Current Time: Jul 26, 2014 at 7:14:12 PM

Latest Report: Jul 26, 2014 at 6:00 PM


Visibility: 7 mi

Pressure: 29.92 "Hg

Humidity: 81%

Dew point: 65 °F

Location of Gronau (Westfalen)Location

Historic Weather in Gronau (Westfalen) — Graph

°F

Gronau (Westfalen) temperature yesterday

Maximum temperature yesterday: 67 °F (at 8:00 PM)
Minimum temperature yesterday: 61 °F (at 3:00 AM)
Average temperature yesterday: 64 °F

Past Weeks' High & Low Weather Summary

 TemperatureHumidityPressure
High92 °F (Jul 19, 4:00 PM)100% (Jul 12, 12:00 AM)30.20 "Hg (Jul 12, 12:00 AM)
Low52 °F (Jul 12, 6:00 AM)28% (Jul 19, 4:00 PM)29.69 "Hg (Jul 13, 7:00 PM)
Average69 °F76%29.98 "Hg
* Reported Jul 11 5:00 PM — Jul 26 5:00 PM, Gronau (Westfalen), Weather by CustomWeather, © 2014

Note: Actual official high and low records may vary slightly from our data, if they occured in-between our weather recording intervals... More about our weather records

Advertising

Gronau (Westfalen) weather history for previous 24 hours

 ConditionsComfort  
Time TempWeatherWind HumidityBarometerVisibility
5:00 PM
Jul 26
71 °FOvercast.No wind84%29.92 "Hg7 mi
4:00 PM69 °FLight rain. Overcast.1 mph88%29.93 "Hg5 mi
3:00 PM68 °FRain showers. Overcast.2 mph93%29.93 "Hg5 mi
2:00 PM71 °FOvercast.2 mph79%29.93 "Hg7 mi
1:00 PM71 °FOvercast.2 mph74%29.93 "Hg7 mi
12:00 PM69 °FFog.2 mph84%29.93 "Hg4 mi
11:00 AM67 °FLow clouds.2 mph89%29.93 "Hg3 mi
10:00 AM67 °FFog.1 mph89%29.93 "Hg5 mi
9:00 AM65 °FFog.1 mph93%29.92 "Hg5 mi
8:00 AM64 °FOvercast.1 mph96%29.91 "Hg4 mi
7:00 AM62 °FRain. Overcast.1 mph99%29.92 "Hg1 mi
6:00 AM62 °FLight rain. Overcast.1 mph99%29.92 "Hg1 mi
5:00 AM62 °FLight rain. Overcast.1 mph99%29.92 "Hg2 mi
4:00 AM62 °FRain showers. Overcast.N/A97%29.93 "Hg3 mi
3:00 AM62 °FFog.1 mph99%29.93 "Hg2 mi
2:00 AM63 °FOvercast.1 mph96%29.93 "Hg5 mi
1:00 AM62 °FOvercast.No wind100%29.94 "Hg1 mi
12:00 AM64 °FFog.1 mph97%29.94 "Hg2 mi
11:00 PM
Jul 25
64 °FFog.2 mph96%29.95 "Hg2 mi
10:00 PM64 °FFog.2 mph93%29.95 "Hg5 mi
9:00 PM66 °FOvercast.2 mph90%29.94 "Hg6 mi
8:00 PM67 °FOvercast.2 mph86%29.95 "Hg9 mi
7:00 PM66 °FLow clouds.1 mph86%29.95 "Hg8 mi
Weather by CustomWeather, © 2014

See weather overviewHow to use our weather pages